OPS 4682 DEB, 38430

Orbit data source: Space-Track

OPS 4682 DEB, 38430 is space debris in LEO originally from a launch on Sat, 03 Apr 1965 UTC launched from the Air Force Western Test Range (AFWTR). Debris objects in space refer to the collection of defunct objects orbiting the Earth. Examples of debris include non-operational satellites, rocket bodies, and fragments generated from explosions, collisions, or faulty payload assembly.

Loading next visibility...
Identifier
38430, 1965-027EK
Orbit
LEO
Country
Flag of USUS
Related business
Manufacturer
Unknown
Mission
Spacecraft
Bus & Motor
Unknown
Mass
Unknown
Launch date (UTC)
1965-04-03 (61 years ago)
Launch vehicle
Unknown
Launch site
Air Force Western Test Range (AFWTR)
Object type
Payload
Rocket body
Debris
Shape & HBR
Unknown shape, 0.1 m
Radar Cross Section
Small (<0.1 m²)

Expand to show TLE details & history
Last TLE update: 1 day ago

TLE from 1 day ago
0 OPS 4682 DEB
1 38430U 65027EK  26035.19020999  .00000250  00000-0  80060-3 0  9997
2 38430  90.2636  19.3073 0052928 338.4567  21.4328 13.00008966646415
Epoch: 2026-02-04T04:33Z
TLE epoch observation values (Epoch: 2026-02-04T04:33:54.143Z)
Latitude
Longitude
176.47135°
Altitude
1,227.315 km
Speed
7.259 km/s
True Right ascension
01h 17m 13s
True Declination
0° 00' 00"
Sunlit
Object was in daylight at epoch
Visualization orbit readout
Latitude
Unknown
Longitude
Unknown
Altitude
Unknown
Speed
Unknown
Apparent Right ascension
Unknown
Apparent Declination
Unknown
Sunlit
N/A
Visualization observer readout
Local Sidereal Time
11:56:41
Azimuth
Unknown
Elevation
Unknown
Doppler factor
Unknown
Orbital elements
Apogee altitude
1,299.601 km
Perigee altitude
1,218.756 km
Semi-major axis
7,637.315 km
Eccentricity
0.00529
Inclination
90.2636°
RAAN
19.3073°
Arg. of periapsis
338.4567°
True anomaly
21.6558°
Mean anomaly
21.4328°
Eccentric anomaly
21.54416°
Mean motion
3.25186 °/min
Orbital period
110.71 mins
BSTAR
0.0008006
Loading maneuver chart data...
Computing Atmospheric mass density...
Loading historical data...
Loading historical data...
Loading historical data...
Loading historical data...
Loading historical data...
Loading historical data...
Loading historical data...

Documentation

Showing up to 5 results
|